This is the latest recevied weather packets stored in our database for station/object BV3BA-13. If no packets are shown the sender has not sent any weather packets the latest 10 day(s).
| Time | Temp. | Humidity | Pressure | Rain* | Wind** | Luminosity | Snow |
|---|---|---|---|---|---|---|---|
| 1777462024 | 22.22° C | 96% | 1009.1 hPa | 2.03 mm | - | - | - |
| 1777461424 | 22.22° C | 95% | 1009.4 hPa | 4.57 mm | - | - | - |
| 1777460824 | 22.78° C | 95% | 1009.1 hPa | 3.05 mm | - | - | - |
| 1777460223 | 22.78° C | 95% | 1008.9 hPa | 4.06 mm | - | - | - |
| 1777459624 | 22.78° C | 96% | 1008.9 hPa | 5.59 mm | - | - | - |
| 1777459023 | 22.78° C | 95% | 1008.6 hPa | 6.6 mm | - | - | - |
| 1777458424 | 22.78° C | 95% | 1008.2 hPa | 7.87 mm | - | - | - |
| 1777457887 | 22.78° C | 96% | 1008 hPa | 5.59 mm | - | - | - |
| 1777457224 | 22.78° C | 95% | 1008 hPa | 6.1 mm | - | - | - |
| 1777456623 | 23.33° C | 96% | 1007.5 hPa | 4.57 mm | - | - | - |
| 1777456024 | 23.33° C | 96% | 1007.4 hPa | 3.56 mm | - | - | - |
| 1777455423 | 23.33° C | 95% | 1007.2 hPa | 2.54 mm | - | - | - |
| 1777454824 | 23.89° C | 95% | 1007.1 hPa | 1.52 mm | - | - | - |
| 1777454224 | 23.89° C | 94% | 1007.2 hPa | 1.52 mm | - | - | - |
| 1777453623 | 23.89° C | 95% | 1007.2 hPa | 1.02 mm | - | - | - |
| 1777453023 | 23.89° C | 95% | 1007.1 hPa | 1.02 mm | - | - | - |
| 1777452423 | 23.89° C | 94% | 1007 hPa | 0.51 mm | - | - | - |
| 1777451823 | 24.44° C | 91% | 1007.1 hPa | 0.51 mm | - | - | - |
| 1777451223 | 24.44° C | 90% | 1006.8 hPa | 0 mm | - | - | - |
| 1777450623 | 24.44° C | 91% | 1006.8 hPa | 0.51 mm | - | - | - |
| 1777450023 | 24.44° C | 92% | 1006.6 hPa | 0.51 mm | - | - | - |
| 1777449424 | 24.44° C | 92% | 1006.5 hPa | 0.51 mm | - | - | - |
| 1777448823 | 24.44° C | 92% | 1006.3 hPa | 1.02 mm | - | - | - |
| 1777448224 | 24.44° C | 92% | 1006.3 hPa | 3.05 mm | - | - | - |
| 1777447623 | 24.44° C | 92% | 1006.4 hPa | 3.05 mm | - | - | - |
* Rain latest hour (hover to see other rain measurements)
** Current wind speed in m/s (hover to see current wind gust speed)